FW2928 Weather Reports


time (UTC)temp
C
wind
direction
speed
KPH
gust
KPH
rain 1hr
cm
rain 24hr
cm
rain mn
cm
humidity
%
barometer
mb
20260505041507 12 98 12.9 29.0 0.89 1.65 1.65 87 1012.4
20260505041336 13 108 11.3 20.9 4.39 8.31 1.65 87 1012.5
20260505040823 13 196 6.4 20.9 4.29 8.20 1.65 87 1012.4
20260505040321 13 196 8.0 22.5 4.09 8.00 1.60 87 1012.4
20260505040037 12 116 12.9 22.5 0.79 1.57 1.57 87 1012.3
20260505035830 13 102 11.3 22.5 3.99 7.90 1.57 87 1012.3
20260505035315 13 68 8.0 24.1 3.81 7.70 1.55 87 1012.3
20260505034818 13 75 12.9 24.1 3.61 7.49 1.50 87 1012.2
20260505034529 12 77 11.3 22.5 0.66 1.42 1.42 87 1012.2
20260505034327 13 125 9.7 19.3 3.20 7.11 1.42 87 1012.2
20260505033845 13 89 11.3 22.5 2.59 6.50 1.30 87 1012.5
20260505033316 13 107 9.7 22.5 1.19 5.11 1.02 87 1012.6
20260505033101 13 84 9.7 22.5 0.20 0.99 0.99 86 1012.8
20260505032815 13 65 6.4 20.9 0.71 4.60 0.91 86 1012.8
20260505032317 13 110 8.0 24.1 0.51 4.29 0.86 86 1013.0
20260505031826 13 99 11.3 22.5 0.10 3.91 0.79 86 1013.0
20260505031556 13 123 9.7 19.3 0.03 0.79 0.79 86 1012.8
20260505031325 13 136 9.7 19.3 0.10 3.91 0.79 86 1012.9
20260505030834 13 63 11.3 17.7 0.10 3.91 0.79 86 1013.1
20260505030335 13 89 4.8 14.5 0.10 3.91 0.79 86 1013.3
20260505030026 13 71 3.2 19.3 0.03 0.79 0.79 86 1013.2
20260505025822 13 98 6.4 19.3 0.20 3.91 0.79 86 1013.3
20260505025324 13 58 6.4 19.3 0.20 3.91 0.79 86 1013.4
20260505024826 13 195 6.4 12.9 0.20 3.91 0.79 87 1013.5
20260505024521 13 195 0.0 4.8 0.05 0.79 0.79 87 1013.5
20260505024314 13 195 1.6 4.8 0.20 3.91 0.79 86 1013.5
20260505023815 13 195 0.0 20.9 0.20 3.91 0.79 86 1013.5
20260505023316 13 195 4.8 24.1 0.30 3.91 0.79 86 1013.5
20260505023021 13 83 11.3 24.1 0.05 0.79 0.79 86 1013.5
20260505022825 13 100 9.7 19.3 0.41 3.91 0.79 86 1013.7
20260505022326 13 79 9.7 24.1 0.41 3.81 0.76 86 1013.7
20260505021834 13 88 11.3 25.7 0.51 3.81 0.76 86 1013.7
20260505021545 13 86 11.3 25.7 0.13 0.76 0.76 86 1013.7
20260505021355 13 84 11.3 25.7 0.61 3.81 0.76 86 1013.8
20260505020820 13 93 12.9 24.1 0.71 3.81 0.76 86 1013.8
20260505020328 13 78 12.9 24.1 0.79 3.81 0.76 86 1013.8
20260505020006 13 113 12.9 20.9 0.15 0.76 0.76 86 1013.9
20260505015813 13 95 9.7 20.9 0.79 3.71 0.74 87 1014.0
20260505015336 13 103 12.9 22.5 0.89 3.71 0.74 87 1014.0
20260505014857 13 97 11.3 22.5 0.99 3.71 0.74 87 1014.0
20260505014513 13 88 9.7 19.3 0.20 0.71 0.71 87 1014.0
20260505014336 13 56 11.3 19.3 0.99 3.71 0.74 87 1014.0
20260505013852 13 109 8.0 22.5 1.09 3.71 0.74 87 1014.1
20260505013331 13 109 11.3 19.3 1.09 3.61 0.71 87 1014.2
20260505013029 13 64 11.3 19.3 0.23 0.71 0.71 87 1014.1
20260505012839 13 88 11.3 19.3 0.99 3.51 0.71 87 1014.1
20260505012321 13 103 9.7 17.7 0.99 3.40 0.69 87 1014.3
20260505011850 13 98 8.0 20.9 0.99 3.30 0.66 87 1014.4
20260505011501 13 63 8.0 20.9 0.20 0.64 0.64 87 1014.4
20260505011357 13 67 11.3 19.3 0.99 3.20 0.64 87 1014.6
20260505010836 13 195 6.4 12.9 1.09 3.10 0.61 87 1014.6
20260505010331 13 75 3.2 16.1 1.09 3.00 0.61 87 1014.7
20260505010026 13 92 4.8 16.1 0.23 0.61 0.61 87 1014.8
20260505005839 13 64 4.8 16.1 1.09 2.90 0.58 87 1014.8
20260505005319 13 194 4.8 16.1 1.19 2.79 0.56 87 1014.8
20260505004826 13 109 9.7 16.1 1.40 2.69 0.53 87 1014.9
20260505004538 13 65 8.0 16.1 0.33 0.53 0.53 86 1015.0
20260505004333 13 70 6.4 16.1 1.60 2.69 0.53 86 1015.1
20260505003814 13 84 8.0 17.7 1.70 2.59 0.51 86 1015.1
20260505003332 13 58 6.4 14.5 1.91 2.49 0.51 86 1015.2
20260505003033 13 96 6.4 17.7 0.41 0.51 0.51 86 1015.2
20260505002823 13 150 6.4 17.7 2.11 2.49 0.51 86 1015.2
20260505002323 13 110 9.7 17.7 2.21 2.39 0.48 86 1015.3
20260505001823 13 96 8.0 12.9 2.11 2.31 0.46 86 1015.4
20260505001520 13 105 9.7 12.9 0.43 0.43 0.43 86 1015.5
20260505001351 13 80 6.4 12.9 2.11 2.21 0.43 86 1015.7
20260505000838 13 72 6.4 9.7 1.91 2.01 0.41 85 1015.7
20260505000318 13 92 3.2 11.3 1.80 1.91 0.38 85 1015.9
20260505000106 13 63 3.2 11.3 0.38 0.38 0.38 85 1015.9
20260504235829 14 88 4.8 11.3 1.80 1.80 0.36 85 1016.0
20260504235325 14 70 4.8 9.7 1.50 1.50 0.30 84 1016.0
20260504234830 14 87 3.2 8.0 1.19 1.19 0.23 83 1016.1
20260504234504 14 81 0.0 6.4 0.23 0.23 0.23 83 1016.1
20260504234312 14 70 0.0 6.4 0.99 0.99 0.20 83 1016.2
20260504233814 15 87 0.0 3.2 0.79 0.79 0.15 82 1016.2
20260504233343 15 68 0.0 8.0 0.61 0.61 0.13 80 1016.2
20260504233041 15 77 0.0 8.0 0.10 0.10 0.10 79 1016.3
20260504232822 15 193 3.2 8.0 0.41 0.41 0.08 78 1016.3
20260504232331 15 75 0.0 8.0 0.20 0.20 0.05 77 1016.3
20260504231812 15 60 1.6 6.4 0.20 0.20 0.05 75 1016.3
20260504231532 15 72 0.0 1.6 0.03 0.03 0.03 74 1016.3
20260504231320 16 76 0.0 0.0 0.10 0.10 0.03 73 1016.3
20260504230843 16 105 0.0 3.2 0.10 0.10 0.03 72 1016.3
20260504230321 16 75 0.0 8.0 0.10 0.10 0.03 70 1016.4
20260504230037 16 83 0.0 14.5 0.00 0.00 0.00 69 1016.5
20260504225830 16 86 1.6 14.5 0.00 0.00 0.00 68 1016.5
20260504225331 16 92 8.0 14.5 0.00 0.00 0.00 66 1016.4
20260504224813 16 95 0.0 0.0 0.00 0.00 0.00 66 1016.4
20260504224509 16 75 0.0 4.8 0.00 0.00 0.00 66 1016.4
20260504224342 16 194 0.0 4.8 0.00 0.00 0.00 66 1016.6
20260504223828 16 194 0.0 6.4 0.00 0.00 0.00 66 1016.6
20260504223359 16 194 1.6 6.4 0.00 0.00 0.00 66 1016.7
20260504223021 16 194 0.0 0.0 0.00 0.00 0.00 66 1016.6
20260504222838 16 194 0.0 0.0 0.00 0.00 0.00 66 1016.7
20260504222313 16 194 0.0 0.0 0.00 0.00 0.00 66 1016.9
20260504221842 16 194 0.0 3.2 0.00 0.00 0.00 66 1016.8
20260504221554 16 194 0.0 3.2 0.00 0.00 0.00 67 1016.9
20260504221355 16 194 0.0 3.2 0.00 0.00 0.00 67 1017.0
20260504220833 16 194 0.0 0.0 0.00 0.00 0.00 67 1017.0
20260504220327 16 194 0.0 4.8 0.00 0.00 0.00 67 1017.0
20260504220005 16 194 0.0 4.8 0.00 0.00 0.00 68 1016.9
20260504215826 16 194 0.0 4.8 0.00 0.00 0.00 68 1016.9
20260504215355 16 194 0.0 4.8 0.00 0.00 0.00 68 1017.0
20260504214815 16 194 0.0 0.0 0.00 0.00 0.00 68 1017.1
20260504214546 16 194 0.0 0.0 0.00 0.00 0.00 68 1017.0
20260504214317 16 194 0.0 0.0 0.00 0.00 0.00 68 1017.1
20260504213824 16 194 0.0 0.0 0.00 0.00 0.00 68 1017.0
20260504213327 16 194 0.0 0.0 0.00 0.00 0.00 68 1017.1
20260504213035 16 194 0.0 0.0 0.00 0.00 0.00 69 1017.1
20260504212856 16 194 0.0 0.0 0.00 0.00 0.00 69 1017.2
20260504212329 16 194 0.0 0.0 0.00 0.00 0.00 69 1017.2
20260504211838 16 194 0.0 0.0 0.00 0.00 0.00 69 1017.2
20260504211539 16 194 0.0 0.0 0.00 0.00 0.00 69 1017.2
20260504211319 16 194 0.0 0.0 0.00 0.00 0.00 69 1017.3
20260504210846 16 194 0.0 0.0 0.00 0.00 0.00 69 1017.4
20260504210333 16 194 0.0 0.0 0.00 0.00 0.00 69 1017.5
20260504210010 16 194 0.0 0.0 0.00 0.00 0.00 69 1017.3
20260504205814 16 194 0.0 0.0 0.00 0.00 0.00 69 1017.4
20260504205316 16 194 0.0 0.0 0.00 0.00 0.00 69 1017.3
20260504204846 16 194 0.0 0.0 0.00 0.00 0.00 69 1017.3
20260504204550 16 194 0.0 0.0 0.00 0.00 0.00 69 1017.3
20260504204325 16 194 0.0 0.0 0.00 0.00 0.00 69 1017.3
20260504203816 16 194 0.0 0.0 0.00 0.00 0.00 70 1017.3
20260504203316 16 194 0.0 0.0 0.00 0.00 0.00 71 1017.3
20260504203037 16 194 0.0 0.0 0.00 0.00 0.00 72 1017.3
20260504202844 16 194 0.0 0.0 0.00 0.00 0.00 72 1017.3
20260504202330 16 194 0.0 0.0 0.00 0.00 0.00 71 1017.4
20260504201837 16 194 0.0 0.0 0.00 0.00 0.00 71 1017.4
20260504201505 16 194 0.0 0.0 0.00 0.00 0.00 71 1017.4
20260504201332 16 194 0.0 0.0 0.00 0.00 0.00 71 1017.6
20260504200837 16 194 0.0 0.0 0.00 0.00 0.00 71 1017.6
20260504200331 16 194 0.0 0.0 0.00 0.00 0.00 70 1017.5
20260504200046 16 194 0.0 0.0 0.00 0.00 0.00 70 1017.4
20260504195828 16 194 0.0 0.0 0.00 0.00 0.00 69 1017.5
20260504195334 16 194 0.0 0.0 0.00 0.00 0.00 69 1017.4
20260504194838 16 194 0.0 0.0 0.00 0.00 0.00 68 1017.4
20260504194532 16 194 0.0 0.0 0.00 0.00 0.00 68 1017.5
20260504194411 16 194 0.0 0.0 0.00 0.00 0.00 68 1017.5
20260504193843 16 194 0.0 0.0 0.00 0.00 0.00 68 1017.4
20260504193334 16 194 0.0 0.0 0.00 0.00 0.00 67 1017.4
20260504193009 16 194 0.0 0.0 0.00 0.00 0.00 67 1017.4
20260504192820 17 194 0.0 0.0 0.00 0.00 0.00 67 1017.3
20260504192329 17 194 0.0 0.0 0.00 0.00 0.00 67 1017.2
20260504191835 17 194 0.0 0.0 0.00 0.00 0.00 67 1017.3
20260504191551 16 194 0.0 0.0 0.00 0.00 0.00 67 1017.2
20260504191443 17 194 0.0 0.0 0.00 0.00 0.00 66 1017.2
20260504190832 17 194 0.0 0.0 0.00 0.00 0.00 65 1017.2
20260504190315 17 194 0.0 0.0 0.00 0.00 0.00 65 1017.1
20260504190030 17 194 0.0 0.0 0.00 0.00 0.00 65 1017.1
20260504185839 17 194 0.0 0.0 0.00 0.00 0.00 65 1017.0
20260504185316 17 194 0.0 0.0 0.00 0.00 0.00 64 1017.1
20260504184840 17 194 0.0 0.0 0.00 0.00 0.00 64 1017.1
20260504184506 17 194 0.0 0.0 0.00 0.00 0.00 63 1017.0
20260504184316 17 194 0.0 0.0 0.00 0.00 0.00 63 1017.0
20260504183821 17 194 0.0 0.0 0.00 0.00 0.00 63 1017.1
20260504183339 17 194 0.0 0.0 0.00 0.00 0.00 63 1017.0
20260504183014 17 194 0.0 0.0 0.00 0.00 0.00 63 1017.1
20260504182826 17 194 0.0 0.0 0.00 0.00 0.00 63 1017.1
20260504182329 17 194 0.0 0.0 0.00 0.00 0.00 63 1017.2
20260504181814 17 194 0.0 0.0 0.00 0.00 0.00 63 1017.0
20260504181547 17 194 0.0 0.0 0.00 0.00 0.00 63 1017.0
20260504181314 17 194 0.0 0.0 0.00 0.00 0.00 63 1017.2
20260504180823 17 194 0.0 0.0 0.00 0.00 0.00 63 1017.0
20260504180325 17 194 0.0 0.0 0.00 0.00 0.00 63 1017.0
20260504180041 17 194 0.0 0.0 0.00 0.00 0.00 63 1017.0
20260504175834 17 194 0.0 0.0 0.00 0.00 0.00 63 1017.0
20260504175316 18 194 0.0 0.0 0.00 0.00 0.00 62 1017.1
20260504174827 18 194 0.0 0.0 0.00 0.00 0.00 62 1017.1
20260504174509 17 194 0.0 0.0 0.00 0.00 0.00 62 1017.1
20260504174346 18 194 0.0 0.0 0.00 0.00 0.00 62 1017.0
20260504173834 18 194 0.0 0.0 0.00 0.00 0.00 62 1017.1
20260504173336 18 194 0.0 4.8 0.00 0.00 0.00 62 1017.1
20260504173022 18 194 0.0 4.8 0.00 0.00 0.00 62 1017.1
20260504172823 18 194 0.0 4.8 0.00 0.00 0.00 62 1017.1
20260504172318 18 194 1.6 4.8 0.00 0.00 0.00 61 1017.1
20260504171827 18 194 0.0 3.2 0.00 0.00 0.00 61 1017.2
20260504171553 18 194 0.0 8.0 0.00 0.00 0.00 61 1017.1
20260504171334 18 194 0.0 8.0 0.00 0.00 0.00 61 1017.2
20260504170820 18 194 0.0 4.8 0.00 0.00 0.00 61 1017.1
20260504170329 18 194 0.0 0.0 0.00 0.00 0.00 61 1017.2
20260504160343 21 194 0.0 0.0 0.00 0.00 0.00 56 1017.0
20260504150906 21 194 3.2 9.7 0.00 0.00 0.00 52 1017.0
20260504150330 21 194 0.0 3.2 0.00 0.00 0.00 52 1016.9
20260504141334 22 194 0.0 0.0 0.00 0.00 0.00 47 1017.1
20260504140815 22 194 0.0 0.0 0.00 0.00 0.00 47 1017.1
20260504140344 22 194 0.0 0.0 0.00 0.00 0.00 46 1017.0
20260504140113 22 194 0.0 0.0 0.00 0.00 0.00 46 1017.1
20260504130313 22 194 0.0 4.8 0.00 0.00 0.00 48 1017.5
20260504110314 22 195 3.2 9.7 0.00 0.00 0.00 41 1018.4
20260504100320 21 194 0.0 0.0 0.00 0.00 0.00 45 1018.9
20260504100115 20 194 0.0 0.0 0.00 0.00 0.00 45 1018.9
20260504081858 17 89 4.8 12.9 0.00 0.00 0.00 64 1019.0
20260504081511 16 84 3.2 12.9 0.00 0.00 0.00 63 1019.1
20260504081338 17 194 0.0 6.4 0.00 0.00 0.00 64 1019.2
20260504080826 16 194 0.0 6.4 0.00 0.00 0.00 64 1019.1
20260504080347 16 68 0.0 8.0 0.00 0.00 0.00 65 1019.1
20260504070343 14 194 0.0 0.0 0.00 0.00 0.00 76 1018.9
20260504050338 9 194 0.0 0.0 0.00 0.00 0.00 85 1018.7
20260504050021 9 194 0.0 0.0 0.00 0.00 0.00 85 1018.7
20260504045820 9 194 0.0 0.0 0.00 0.00 0.00 85 1018.7